Regional Weather Roundup
Issued by NWS

Home | Current Version | Previous Version | Graphics & Text | Print | Product List | Glossary On
Versions: 1 2 3 4 5 6 7 8 9 10 11 12 13 14 15 16 17 18 19 20 21 22 23 24 25 26 27 28 29 30 31 32 33 34 35 36 37 38 39 40 41 42 43 44 45 46 47 48 49 50
000
ASUS43 KLSX 210959
RWRMO

WEATHER SUMMARY FOR MISSOURI
NATIONAL WEATHER SERVICE SPRINGFIELD MO
400 AM CST SUN DEC 21 2014

NOTE: "FAIR" INDICATES FEW OR NO CLOUDS BELOW 12,000 FEET WITH NO
       SIGNIFICANT WEATHER AND/OR OBSTRUCTIONS TO VISIBILITY.
       CURRENT SKY AND/OR WEATHER CONDITIONS ARE NOT AVAILABLE FOR
       CHILLICOTHE AND FARMINGTON.

MOZ001>031-035>038-043-044-053-054-211100-
...NORTHERN AND WESTERN MISSOURI...

CITY           SKY/WX    TMP DP  RH WIND       PRES   REMARKS
KANSAS CTY INT CLOUDY    36  33  89 S13       30.07F WCI  27
KANSAS C DTWN  CLOUDY    38  34  85 S8        30.09F
LEE`S SUMMIT   CLOUDY    37  34  89 SW7       30.11R
ST JOSEPH      CLOUDY    35  32  88 S10       30.06F WCI  27
CHILLICOTHE      N/A     37  34  89 S5        30.12F
KIRKSVILLE     CLOUDY    39  35  86 S8        30.12F

$$
MOZ066>068-077>081-088>096-101>105-211100-
...SOUTHWEST MISSOURI...

CITY           SKY/WX    TMP DP  RH WIND       PRES   REMARKS
SPRINGFIELD    CLOUDY    41  35  79 S10       30.11F
JOPLIN         CLOUDY    43  38  82 S8        30.12S

$$
MOZ032>034-039>042-045>050-055>058-069>072-211100-
...CENTRAL MISSOURI...

CITY           SKY/WX    TMP DP  RH WIND       PRES   REMARKS
COLUMBIA       CLOUDY    40  35  83 SE7       30.14S
JEFFERSON CITY CLOUDY    42  35  76 E6        30.15F
ROLLA          CLOUDY    39  34  82 S8        30.13F
SEDALIA        CLOUDY    42  35  76 SW10      30.13S
WARRENSBURG    CLOUDY    41  34  75 S7        30.12R
OSAGE BEACH    CLOUDY    43  36  75 S8        30.14S

$$
MOZ051-052-059>065-211100-
...EAST CENTRAL MISSOURI...

CITY           SKY/WX    TMP DP  RH WIND       PRES   REMARKS
ST LOUIS INTL  CLOUDY    42  33  70 SE6       30.20F
SPIRIT OF STL  CLOUDY    41  34  76 SE3       30.19F
ST CHARLES     CLOUDY    39  35  86 SE7       30.20F

$$
MOZ072>076-082>087-097>100-106>115-211100-
...SOUTH CENTRAL AND SOUTHEAST MISSOURI...

CITY           SKY/WX    TMP DP  RH WIND       PRES   REMARKS
CAPE GIRARDEAU CLEAR     28  27  96 E5        30.24F WCI  23
FARMINGTON     CLOUDY    37  34  87 E3        30.21F
POPLAR BLUFF   CLOUDY    39  31  72 E3        30.22F
WEST PLAINS    CLOUDY    38  34  85 S5        30.19R

$$



USA.gov is the U.S. government's official web portal to all federal, state and local government web resources and services.